Alyeska Resort Wx Sites
Hourly Roundup from Summit Site
ALYSUM 8/21/2017
Click Here to View Graph!

        DATE  TIME   Air  Wind  Wind  Wind   Rel  BATT Solar
                    Temp   Spd   Dir  Gust  Hum%  Volt Watts
                      F   AVG   AVG   MAX   AVG   AVG    M

   8/21/2017 13:00    45     4   303    14    88 14.48110.00
   8/21/2017 12:00    45     4   226    15    87 14.26 94.30
   8/21/2017 11:00    44     4   296    12    88 14.35156.60
   8/21/2017 10:00    43     3   246    12    90 13.61103.70
   8/21/2017 09:00    44     5    24    14    87 13.10 87.00
   8/21/2017 08:00    43    10    40    15    87 12.77 24.02
   8/21/2017 07:00    43    10    36    17    88 12.76  1.25
   8/21/2017 06:00    43     8     8    14    88 12.80  0.00
   8/21/2017 05:00    42     6   344    16    90 12.82  0.00
   8/21/2017 04:00    42     6   250    19    90 12.85  0.00
   8/21/2017 03:00    42     7   265    20    92 12.86  0.00
   8/21/2017 02:00    41     6   240    17    97 12.86  0.00
   8/21/2017 01:00    40     6   246    17    99 12.90  0.00
   8/20/2017 24:00    41     5   254    13    96 13.04  0.00
   8/20/2017 23:00    41     6   235    15    94 13.26  0.00
   8/20/2017 22:00    40     5   236    16    93 13.52  1.65
   8/20/2017 21:00    40     7   225    17    96 13.82 13.62
   8/20/2017 20:00    39     7   251    26    96 14.08 37.17
   8/20/2017 19:00    39     7   248    27    97 14.52 77.29
   8/20/2017 18:00    39     8   244    23    97 14.50 74.90
   8/20/2017 17:00    39     8   239    20    96 14.73104.40
   8/20/2017 16:00    39     7   222    18    97 14.60 87.20
   8/20/2017 15:00    39     7   226    22    98 14.46 93.20
   8/20/2017 14:00    39     7   215    17    97 14.29109.90


Click Here to View Graph!